Time,TemperatureF,DewpointF,PressureIn,WindDirection,WindDirectionDegrees,WindSpeedMPH,WindSpeedGustMPH,Humidity,HourlyPrecipIn,Conditions,Clouds,dailyrainin,SolarRadiationWatts/m^2,SoftwareType,DateUTC
2013-03-16 00:02:00,47.0,47.0,-100.00,NNW,332,1.0,2.0,98,-99.99,,,0.00,0.000000,,2013-03-16 07:02:00,
2013-03-16 00:11:00,47.0,47.0,-100.00,NNW,332,1.0,2.0,98,-99.99,,,0.00,0.000000,,2013-03-16 07:11:00,
2013-03-16 00:42:00,47.0,47.0,-100.00,NE,47,1.0,2.0,98,-99.99,,,0.00,0.000000,,2013-03-16 07:42:00,
2013-03-16 00:52:00,47.0,47.0,-100.00,NE,47,1.0,2.0,98,-99.99,,,0.00,0.000000,,2013-03-16 07:52:00,
2013-03-16 01:02:00,47.0,47.0,-100.00,NE,47,1.0,2.0,98,-99.99,,,0.00,0.000000,,2013-03-16 08:02:00,
2013-03-16 01:12:00,47.0,47.0,-100.00,NE,47,1.0,2.0,98,-99.99,,,0.00,0.000000,,2013-03-16 08:12:00,
2013-03-16 01:42:00,47.0,47.0,-100.00,WNW,299,0.0,1.0,98,-99.99,,,0.00,0.000000,,2013-03-16 08:42:00,
2013-03-16 01:52:00,47.0,47.0,-100.00,WNW,299,0.0,1.0,98,-99.99,,,0.00,0.000000,,2013-03-16 08:52:00,
2013-03-16 02:01:00,47.0,47.0,-100.00,WNW,299,0.0,1.0,98,-99.99,,,0.00,0.000000,,2013-03-16 09:01:00,
2013-03-16 02:11:00,47.0,47.0,-100.00,WNW,299,0.0,1.0,98,-99.99,,,0.00,0.000000,,2013-03-16 09:11:00,
2013-03-16 02:42:00,47.0,47.0,-100.00,NW,317,0.0,2.0,98,-99.99,,,0.00,0.000000,,2013-03-16 09:42:00,
2013-03-16 02:53:00,47.0,47.0,-100.00,NW,317,0.0,2.0,98,-99.99,,,0.00,0.000000,,2013-03-16 09:53:00,
2013-03-16 03:03:00,47.0,47.0,-100.00,NW,317,0.0,2.0,98,-99.99,,,0.00,0.000000,,2013-03-16 10:03:00,
2013-03-16 03:12:00,47.0,47.0,-100.00,NW,317,0.0,2.0,98,-99.99,,,0.00,0.000000,,2013-03-16 10:12:00,
2013-03-16 03:42:00,47.0,47.0,-100.00,SSW,199,0.0,1.0,98,-99.99,,,0.00,0.000000,,2013-03-16 10:42:00,
2013-03-16 03:53:00,47.0,47.0,-100.00,SSW,199,0.0,1.0,98,-99.99,,,0.00,0.000000,,2013-03-16 10:53:00,
2013-03-16 04:03:00,47.0,47.0,-100.00,SSW,199,0.0,1.0,98,-99.99,,,0.00,0.000000,,2013-03-16 11:03:00,
2013-03-16 04:12:00,47.0,47.0,-100.00,SSW,199,0.0,1.0,98,-99.99,,,0.00,0.000000,,2013-03-16 11:12:00,
2013-03-16 04:42:00,47.0,47.0,-100.00,WSW,258,0.0,2.0,98,-99.99,,,0.00,0.000000,,2013-03-16 11:42:00,
2013-03-16 04:52:00,47.0,47.0,-100.00,WSW,258,0.0,2.0,98,-99.99,,,0.00,0.000000,,2013-03-16 11:52:00,
2013-03-16 05:02:00,47.0,47.0,-100.00,WSW,258,0.0,2.0,98,-99.99,,,0.00,0.000000,,2013-03-16 12:02:00,
2013-03-16 05:12:00,47.0,47.0,-100.00,WSW,258,0.0,2.0,98,-99.99,,,0.00,0.000000,,2013-03-16 12:12:00,
2013-03-16 05:42:00,47.0,47.0,-100.00,SSE,162,1.0,2.0,98,-99.99,,,0.00,0.000000,,2013-03-16 12:42:00,
2013-03-16 05:52:00,47.0,47.0,-100.00,SSE,162,1.0,2.0,98,-99.99,,,0.00,0.000000,,2013-03-16 12:52:00,
2013-03-16 06:02:00,47.0,47.0,-100.00,SSE,162,1.0,2.0,98,-99.99,,,0.00,0.000000,,2013-03-16 13:02:00,
2013-03-16 06:12:00,47.0,47.0,-100.00,SSE,162,1.0,2.0,98,-99.99,,,0.00,0.000000,,2013-03-16 13:12:00,
2013-03-16 06:42:00,47.0,47.0,-100.00,SSW,204,1.0,2.0,98,-99.99,,,0.00,0.000000,,2013-03-16 13:42:00,
2013-03-16 06:53:00,47.0,47.0,-100.00,SSW,204,1.0,2.0,98,-99.99,,,0.00,0.000000,,2013-03-16 13:53:00,
2013-03-16 07:02:00,47.0,47.0,-100.00,SSW,204,1.0,2.0,98,-99.99,,,0.00,0.000000,,2013-03-16 14:02:00,
2013-03-16 07:12:00,47.0,47.0,-100.00,SSW,204,1.0,2.0,98,-99.99,,,0.00,0.000000,,2013-03-16 14:12:00,
2013-03-16 07:42:00,47.0,47.0,-100.00,WSW,239,0.0,2.0,98,-99.99,,,0.00,0.000000,,2013-03-16 14:42:00,
2013-03-16 07:52:00,47.0,47.0,-100.00,WSW,239,0.0,2.0,98,-99.99,,,0.00,0.000000,,2013-03-16 14:52:00,
2013-03-16 08:02:00,47.0,47.0,-100.00,WSW,239,0.0,2.0,98,-99.99,,,0.00,0.000000,,2013-03-16 15:02:00,
2013-03-16 08:12:00,47.0,47.0,-100.00,WSW,239,0.0,2.0,98,-99.99,,,0.00,0.000000,,2013-03-16 15:12:00,
2013-03-16 08:43:00,48.0,47.0,-100.00,SSW,204,1.0,3.0,98,-99.99,,,0.00,15.690000,,2013-03-16 15:43:00,
2013-03-16 08:53:00,48.0,47.0,-100.00,SSW,204,1.0,3.0,98,-99.99,,,0.00,15.690000,,2013-03-16 15:53:00,
2013-03-16 09:02:00,48.0,47.0,-100.00,SSW,204,1.0,3.0,98,-99.99,,,0.00,15.690000,,2013-03-16 16:02:00,
2013-03-16 09:12:00,48.0,47.0,-100.00,SSW,204,1.0,3.0,98,-99.99,,,0.00,15.690000,,2013-03-16 16:12:00,
2013-03-16 09:42:00,47.0,47.0,-100.00,WNW,301,1.0,3.0,98,-99.99,,,0.00,102.739998,,2013-03-16 16:42:00,
2013-03-16 09:53:00,47.0,47.0,-100.00,WNW,301,1.0,3.0,98,-99.99,,,0.00,102.739998,,2013-03-16 16:53:00,
2013-03-16 10:02:00,47.0,47.0,-100.00,WNW,301,1.0,3.0,98,-99.99,,,0.00,102.739998,,2013-03-16 17:02:00,
2013-03-16 10:12:00,47.0,47.0,-100.00,WNW,301,1.0,3.0,98,-99.99,,,0.00,102.739998,,2013-03-16 17:12:00,
2013-03-16 10:42:00,48.0,48.0,-100.00,South,184,2.0,4.0,97,-99.99,,,0.00,142.369995,,2013-03-16 17:42:00,
2013-03-16 10:53:00,48.0,48.0,-100.00,South,184,2.0,4.0,97,-99.99,,,0.00,142.369995,,2013-03-16 17:53:00,
2013-03-16 11:02:00,48.0,48.0,-100.00,South,184,2.0,4.0,97,-99.99,,,0.00,142.369995,,2013-03-16 18:02:00,
2013-03-16 11:12:00,48.0,48.0,-100.00,South,184,2.0,4.0,97,-99.99,,,0.00,142.369995,,2013-03-16 18:12:00,
2013-03-16 11:42:00,50.0,47.0,-100.00,South,185,3.0,7.0,90,-99.99,,,0.00,144.580002,,2013-03-16 18:42:00,
2013-03-16 11:53:00,50.0,47.0,-100.00,South,185,3.0,7.0,90,-99.99,,,0.00,144.580002,,2013-03-16 18:53:00,
2013-03-16 12:02:00,50.0,47.0,-100.00,South,185,3.0,7.0,90,-99.99,,,0.00,144.580002,,2013-03-16 19:02:00,
2013-03-16 12:12:00,50.0,47.0,-100.00,South,185,3.0,7.0,90,-99.99,,,0.00,144.580002,,2013-03-16 19:12:00,
2013-03-16 12:42:00,50.0,47.0,-100.00,SSW,197,4.0,10.0,91,-99.99,,,0.00,234.880005,,2013-03-16 19:42:00,
2013-03-16 12:52:00,50.0,47.0,-100.00,SSW,197,4.0,10.0,91,-99.99,,,0.00,234.880005,,2013-03-16 19:52:00,
2013-03-16 13:02:00,50.0,47.0,-100.00,SSW,197,4.0,10.0,91,-99.99,,,0.00,234.880005,,2013-03-16 20:02:00,
2013-03-16 13:12:00,50.0,47.0,-100.00,SSW,197,4.0,10.0,91,-99.99,,,0.00,234.880005,,2013-03-16 20:12:00,
2013-03-16 13:42:00,50.0,47.0,-100.00,SSW,194,4.0,11.0,90,-99.99,,,0.00,281.250000,,2013-03-16 20:42:00,
2013-03-16 13:52:00,50.0,47.0,-100.00,SSW,194,4.0,11.0,90,-99.99,,,0.00,281.250000,,2013-03-16 20:52:00,
2013-03-16 14:02:00,50.0,47.0,-100.00,SSW,194,4.0,11.0,90,-99.99,,,0.00,281.250000,,2013-03-16 21:02:00,
2013-03-16 14:11:00,50.0,47.0,-100.00,SSW,194,4.0,11.0,90,-99.99,,,0.00,281.250000,,2013-03-16 21:11:00,
2013-03-16 14:43:00,51.0,47.0,-100.00,SSW,201,6.0,16.0,86,-99.99,,,0.00,319.839996,,2013-03-16 21:43:00,
2013-03-16 14:52:00,51.0,47.0,-100.00,SSW,201,6.0,16.0,86,-99.99,,,0.00,319.839996,,2013-03-16 21:52:00,
2013-03-16 15:03:00,51.0,47.0,-100.00,SSW,201,6.0,16.0,86,-99.99,,,0.00,319.839996,,2013-03-16 22:03:00,
2013-03-16 15:12:00,51.0,47.0,-100.00,SSW,201,6.0,16.0,86,-99.99,,,0.00,319.839996,,2013-03-16 22:12:00,
2013-03-16 15:42:00,49.0,47.0,-100.00,SSW,200,5.0,17.0,91,-99.99,,,0.00,72.410004,,2013-03-16 22:42:00,
2013-03-16 15:52:00,49.0,47.0,-100.00,SSW,200,5.0,17.0,91,-99.99,,,0.00,72.410004,,2013-03-16 22:52:00,
2013-03-16 16:02:00,49.0,47.0,-100.00,SSW,200,5.0,17.0,91,-99.99,,,0.00,72.410004,,2013-03-16 23:02:00,
2013-03-16 16:12:00,49.0,47.0,-100.00,SSW,200,5.0,17.0,91,-99.99,,,0.00,72.410004,,2013-03-16 23:12:00,
2013-03-16 16:42:00,49.0,48.0,-100.00,SW,226,4.0,12.0,96,-99.99,,,0.01,67.639999,,2013-03-16 23:42:00,
2013-03-16 16:52:00,49.0,48.0,-100.00,SW,226,4.0,12.0,96,-99.99,,,0.01,67.639999,,2013-03-16 23:52:00,
2013-03-16 17:01:00,49.0,48.0,-100.00,SW,226,4.0,12.0,96,-99.99,,,0.01,67.639999,,2013-03-17 00:01:00,
2013-03-16 17:12:00,49.0,48.0,-100.00,SW,226,4.0,12.0,96,-99.99,,,0.01,67.639999,,2013-03-17 00:12:00,
2013-03-16 18:42:00,49.0,48.0,-100.00,West,262,4.0,16.0,98,-99.99,,,0.01,44.980000,,2013-03-17 01:42:00,
2013-03-16 18:53:00,49.0,48.0,-100.00,West,262,4.0,16.0,98,-99.99,,,0.01,44.980000,,2013-03-17 01:53:00,
2013-03-16 19:02:00,49.0,48.0,-100.00,West,262,4.0,16.0,98,-99.99,,,0.01,44.980000,,2013-03-17 02:02:00,
2013-03-16 19:12:00,49.0,48.0,-100.00,West,262,4.0,16.0,98,-99.99,,,0.01,44.980000,,2013-03-17 02:12:00,
2013-03-16 19:42:00,48.0,48.0,-100.00,SW,236,3.0,8.0,98,-99.99,,,0.01,17.320000,,2013-03-17 02:42:00,
2013-03-16 19:52:00,48.0,48.0,-100.00,SW,236,3.0,8.0,98,-99.99,,,0.01,17.320000,,2013-03-17 02:52:00,
2013-03-16 20:02:00,48.0,48.0,-100.00,SW,236,3.0,8.0,98,-99.99,,,0.01,17.320000,,2013-03-17 03:02:00,
2013-03-16 20:12:00,48.0,48.0,-100.00,SW,236,3.0,8.0,98,-99.99,,,0.01,17.320000,,2013-03-17 03:12:00,
2013-03-16 20:43:00,48.0,47.0,-100.00,West,281,4.0,11.0,96,-99.99,,,0.01,0.000000,,2013-03-17 03:43:00,
2013-03-16 20:53:00,48.0,47.0,-100.00,West,281,4.0,11.0,96,-99.99,,,0.01,0.000000,,2013-03-17 03:53:00,
2013-03-16 21:02:00,48.0,47.0,-100.00,West,281,4.0,11.0,96,-99.99,,,0.01,0.000000,,2013-03-17 04:02:00,
2013-03-16 21:12:00,48.0,47.0,-100.00,West,281,4.0,11.0,96,-99.99,,,0.01,0.000000,,2013-03-17 04:12:00,
2013-03-16 21:42:00,47.0,44.0,-100.00,WNW,297,3.0,7.0,91,-99.99,,,0.01,0.000000,,2013-03-17 04:42:00,
2013-03-16 21:53:00,47.0,44.0,-100.00,WNW,297,3.0,7.0,91,-99.99,,,0.01,0.000000,,2013-03-17 04:53:00,
2013-03-16 22:02:00,47.0,44.0,-100.00,WNW,297,3.0,7.0,91,-99.99,,,0.01,0.000000,,2013-03-17 05:02:00,
2013-03-16 22:12:00,47.0,44.0,-100.00,WNW,297,3.0,7.0,91,-99.99,,,0.01,0.000000,,2013-03-17 05:12:00,
2013-03-16 22:42:00,46.0,44.0,-100.00,NNW,335,5.0,14.0,92,-99.99,,,0.01,0.000000,,2013-03-17 05:42:00,
2013-03-16 22:52:00,46.0,44.0,-100.00,NNW,335,5.0,14.0,92,-99.99,,,0.01,0.000000,,2013-03-17 05:52:00,
2013-03-16 23:02:00,46.0,44.0,-100.00,NNW,335,5.0,14.0,92,-99.99,,,0.01,0.000000,,2013-03-17 06:02:00,
2013-03-16 23:12:00,46.0,44.0,-100.00,NNW,335,5.0,14.0,92,-99.99,,,0.01,0.000000,,2013-03-17 06:12:00,
2013-03-16 23:42:00,44.0,42.0,-100.00,NNW,330,8.0,22.0,89,-99.99,,,0.01,0.000000,,2013-03-17 06:42:00,
2013-03-16 23:52:00,44.0,42.0,-100.00,NNW,330,8.0,22.0,89,-99.99,,,0.01,0.000000,,2013-03-17 06:52:00,